Regional Weather Roundup
Issued by NWS

Home | Current Version | Previous Version | Graphics & Text | Print | Product List | Glossary On
Versions: 1 2 3 4 5 6 7 8 9 10 11 12 13 14 15 16 17 18 19 20 21 22 23 24 25 26 27 28 29 30 31 32 33 34 35 36 37 38 39 40 41 42 43 44 45 46 47 48 49 50
000
ASUS45 KCYS 291910
RWRWY

WYOMING REGIONAL WEATHER ROUNDUP
NATIONAL WEATHER SERVICE CHEYENNE WY
100 PM MDT TUE JUL 29 2014

NOTE:  "FAIR" INDICATES FEW OR NO CLOUDS BELOW 12,000 FEET
WITH NO SIGNIFICANT WEATHER AND/OR OBSTRUCTIONS TO VISIBILITY.

WYZ001-292000-
YELLOWSTONE NATIONAL PARK

CITY           SKY/WX    TMP DP  RH WIND       PRES   REMARKS
LK YELLOWSTONE   N/A     60  48  64 E5        30.48R
W YELLOWSTONE  NOT AVBL

$$
WYZ002>013-054>058-071-098>099-292000-
NORTHERN WYOMING

CITY           SKY/WX    TMP DP  RH WIND       PRES   REMARKS
JACKSON        CLOUDY    70  48  46 MISG      30.33S
CODY           NOT AVBL
GREYBULL       CLOUDY    76  55  48 S20G29    30.26R
WORLAND        RAIN      63  61  93 S10       30.30R FOG
SHERIDAN       CLOUDY    80  47  31 S5        30.25F
BUFFALO        CLOUDY    68  55  63 S9        30.33S
GILLETTE       CLOUDY    68  60  75 N3        30.30R
HULETT         FAIR      73  59  60 MISG      30.29
NEWCASTLE      LGT RAIN  64  55  72 CALM      30.29

$$
WYZ014>020-022>026-101>103-292000-
CENTRAL WYOMING

CITY           SKY/WX    TMP DP  RH WIND       PRES   REMARKS
BIG PINEY      LGT RAIN  64  51  62 CALM      30.39S
PINEDALE       LGT RAIN  57  52  82 CALM      30.40S
DUBOIS         RAIN      54  52  94 SE7       30.45R
LANDER         LGT RAIN  59  57  93 NE8       30.35S FOG
RIVERTON       LGT RAIN  60  58  92 NE8       30.36S
CASPER         CLOUDY    70  52  52 NE10      30.30S
DOUGLAS        PTSUNNY   79  52  38 NE18G25   30.27F

$$
WYZ021-027>030-104>119-292000-
SOUTHERN WYOMING

CITY           SKY/WX    TMP DP  RH WIND       PRES   REMARKS
EVANSTON       RAIN      58  56  93 N3        30.38S FOG
FORT BRIDGER     N/A     58  58  97 CALM      30.40F
ROCK SPRINGS   LGT RAIN  66  52  60 E20       30.35S
DIXON          CLOUDY    67  57  70 SW13      30.35F THUNDER
RAWLINS        TSTM      62  56  80 SW13      30.33R
SARATOGA       CLOUDY    73  50  43 W10       30.31F
LARAMIE        LGT RAIN  59  56  89 E13       30.33F
CHEYENNE       LGT RAIN  66  57  72 N13G22    30.29F
TORRINGTON     MOSUNNY   76  59  55 SE9       30.22F
PINE BLUFFS    FAIR      77  55  47 E10G18    30.24F

$$



USA.gov is the U.S. government's official web portal to all federal, state and local government web resources and services.